Change the Weather History Date:

Sunday, January 5, 2014

  Actual Average Record
Temperature  
Mean Temperature 41 °F 34 °F  
Max Temperature 56 °F 42 °F 70 °F (1939)
Min Temperature 25 °F 25 °F -3 °F (1981)
Degree Days  
Heating Degree Days 24 31  
Month to date heating degree days 180 155  
Since 1 July heating degree days 1928 1910  
Cooling Degree Days 0 0  
Month to date cooling degree days 0 0  
Year to date cooling degree days 0 0  
Moisture  
Dew Point 33 °F    
Average Humidity 72    
Maximum Humidity 89    
Minimum Humidity 55    
Precipitation  
Precipitation 0.26 in 0.10 in 1.42 in (1950)
Month to date precipitation 0.51 0.48  
Year to date precipitation 0.51 0.48  
Snow  
Snow 0.00 in - - ()
Month to date snowfall 2.0  
Since 1 September snowfall 9.5  
Snow Depth T in    
Sea Level Pressure  
Sea Level Pressure 29.83 in    
Wind  
Wind Speed 6 mph (SSE)    
Max Wind Speed 25 mph    
Max Gust Speed 40 mph    
Visibility 10 miles    
Events Rain    
T = Trace of Precipitation, MM = Missing Value Source: NWS Daily Summary

Daily Weather History Graph

Daily Weather History Graph

Search for Another Location

Airport or City:

Trip Planner

Search our weather history database for the weather conditions in past years. The results will help you decide how hot, cold, wet, or windy it might be!

Date:

Astronomy

Jan. 05, 2014 Rise Set
Actual Time 7:47 AM EST 5:23 PM EST
Civil Twilight 7:18 AM EST 5:53 PM EST
Nautical Twilight 6:45 AM EST 6:26 PM EST
Astronomical Twilight 6:13 AM EST 6:58 PM EST
Moon 10:32 AM EST (1/5) 10:45 PM EST (1/5)
Length of Visible Light 10h 35m
Length of Day
9h 36m
Waxing Crescent, 24% of the Moon is Illuminated
Jan 5
Waxing Crescent
Jan 7
First Quarter
Jan 15
Full
Jan 24
Last Quarter
Jan 30
New

Hourly Weather History & Observations

Time (EST) Temp. Windchill Dew Point Humidity Pressure Visibility Wind Dir Wind Speed Gust Speed Precip Events Conditions
12:51 AM 27.0 °F - 19.9 °F 75% 30.11 in 10.0 mi Calm Calm - N/A   Clear
1:51 AM 26.1 °F 20.5 °F 19.0 °F 75% 30.10 in 10.0 mi East 4.6 mph - N/A   Clear
2:51 AM 28.0 °F - 19.0 °F 69% 30.11 in 10.0 mi Calm Calm - N/A   Scattered Clouds
3:51 AM 30.0 °F - 19.9 °F 66% 30.11 in 10.0 mi Calm Calm - N/A   Overcast
4:51 AM 30.0 °F 25.2 °F 23.0 °F 75% 30.09 in 10.0 mi East 4.6 mph - N/A   Overcast
5:01 AM 30.2 °F 25.4 °F 23.0 °F 75% 30.07 in 10.0 mi East 4.6 mph - N/A   Overcast
5:51 AM 30.9 °F 26.2 °F 24.1 °F 76% 30.09 in 10.0 mi East 4.6 mph - 0.00 in   Overcast
6:47 AM 30.2 °F 26.7 °F 23.0 °F 75% 30.06 in 10.0 mi East 3.5 mph - N/A   Overcast
6:51 AM 30.9 °F 27.5 °F 24.1 °F 76% 30.08 in 10.0 mi East 3.5 mph - N/A   Overcast
7:51 AM 30.9 °F - 24.1 °F 76% 30.06 in 10.0 mi Calm Calm - N/A   Mostly Cloudy
8:51 AM 34.0 °F - 25.0 °F 70% 30.04 in 10.0 mi Calm Calm - N/A   Scattered Clouds
9:51 AM 36.0 °F 33.3 °F 26.1 °F 67% 30.01 in 10.0 mi East 3.5 mph - N/A   Overcast
10:51 AM 39.9 °F - 30.9 °F 70% 29.97 in 10.0 mi Calm Calm - N/A   Overcast
11:51 AM 46.0 °F - 35.1 °F 66% 29.91 in 10.0 mi Calm Calm - N/A   Scattered Clouds
12:51 PM 52.0 °F - 37.9 °F 59% 29.83 in 10.0 mi South 10.4 mph 16.1 mph N/A   Mostly Cloudy
1:51 PM 55.9 °F - 39.9 °F 55% 29.77 in 10.0 mi SSW 11.5 mph 20.7 mph N/A   Clear
2:51 PM 55.0 °F - 39.0 °F 55% 29.73 in 10.0 mi South 8.1 mph - N/A   Clear
3:51 PM 55.0 °F - 39.9 °F 57% 29.68 in 10.0 mi SSE 11.5 mph 16.1 mph N/A   Clear
4:51 PM 53.1 °F - 39.0 °F 59% 29.68 in 10.0 mi SE 4.6 mph - N/A   Partly Cloudy
5:51 PM 52.0 °F - 39.0 °F 61% 29.62 in 10.0 mi SSE 6.9 mph - N/A   Partly Cloudy
6:51 PM 52.0 °F - 39.9 °F 63% 29.59 in 10.0 mi South 6.9 mph - N/A   Clear
7:51 PM 53.1 °F - 39.9 °F 61% 29.57 in 10.0 mi South 8.1 mph - N/A   Overcast
8:51 PM 53.1 °F - 43.0 °F 69% 29.54 in 10.0 mi South 11.5 mph - 0.00 in Rain Light Rain
9:51 PM 50.0 °F - 46.0 °F 86% 29.51 in 7.0 mi South 5.8 mph - 0.04 in Rain Light Rain
10:51 PM 52.0 °F - 48.9 °F 89% 29.47 in 10.0 mi South 15.0 mph 23.0 mph 0.09 in Rain Light Rain
11:14 PM 51.8 °F - 48.2 °F 88% 29.48 in 10.0 mi SSW 11.5 mph 20.7 mph 0.01 in Rain Light Rain
11:28 PM 46.4 °F 39.2 °F 42.8 °F 87% 29.52 in 2.5 mi West 18.4 mph 29.9 mph 0.10 in Rain Rain
11:35 PM 44.6 °F 37.4 °F 42.8 °F 93% 29.52 in 7.0 mi West 16.1 mph 29.9 mph 0.10 in Rain Rain
11:51 PM 44.1 °F 34.8 °F 39.0 °F 82% 29.55 in 9.0 mi WSW 25.3 mph 40.3 mph 0.11 in Rain Light Rain